Weather History for Effingham, IL

Change the Weather History Date:

Thursday, December 26, 2013

  Actual Average (KMTO) Record (KMTO)
Temperature  
Mean Temperature 32 °F 29 °F  
Max Temperature 42 °F 36 °F 59 °F (2008)
Min Temperature 23 °F 21 °F -5 °F (1983)
Degree Days  
Heating Degree Days 32 36  
Month to date heating degree days 861  
Since 1 July heating degree days 1920  
Cooling Degree Days 0 0  
Month to date cooling degree days 0  
Year to date cooling degree days 1057  
Moisture  
Dew Point 22 °F    
Average Humidity 66    
Maximum Humidity 89    
Minimum Humidity 41    
Precipitation  
Precipitation 0.00 in 0.10 in 0.42 in (1949)
Month to date precipitation 2.26  
Year to date precipitation 37.54  
Sea Level Pressure  
Sea Level Pressure 30.32 in    
Wind  
Wind Speed 7 mph (SW)    
Max Wind Speed 10 mph    
Max Gust Speed 17 mph    
Visibility 10 miles    
Events      
T = Trace of Precipitation, MM = Missing Value Source: NWS Daily Summary

Daily Weather History Graph

Daily Weather History Graph

Search for Another Location

Airport:

Trip Planner

Search our weather history database for the weather conditions in past years. The results will help you decide how hot, cold, wet, or windy it might be!

Date:

Astronomy

Dec. 26, 2013 Rise Set
Actual Time 7:11 AM CST 4:37 PM CST
Civil Twilight 6:41 AM CST 5:08 PM CST
Nautical Twilight 6:08 AM CST 5:41 PM CST
Astronomical Twilight 5:35 AM CST 6:14 PM CST
Moon 12:42 AM CST (12/26) 12:11 PM CST (12/26)
Length of Visible Light 10h 26m
Length of Day
9h 26m
Last Quarter, 38% of the Moon is Illuminated
Dec 26
Last Quarter
Jan 1
New
Jan 7
First Quarter
Jan 15
Full
Jan 23
Last Quarter

Hourly Weather History & Observations

Time (CST) Temp. Windchill Dew Point Humidity Pressure Visibility Wind Dir Wind Speed Gust Speed Precip Events Conditions
12:15 AM 33.1 °F 24.9 °F 25.2 °F 73% 30.26 in 10.0 mi West 10.4 mph - N/A   Overcast
12:35 AM 32.9 °F 25.3 °F 25.0 °F 73% 30.26 in 10.0 mi West 9.2 mph - N/A   Overcast
12:55 AM 32.4 °F 25.3 °F 25.0 °F 74% 30.26 in 10.0 mi West 8.1 mph - N/A   Overcast
1:15 AM 32.0 °F 24.8 °F 24.8 °F 75% 30.26 in 10.0 mi West 8.1 mph - N/A   Mostly Cloudy
1:35 AM 31.6 °F 24.4 °F 24.8 °F 76% 30.26 in 10.0 mi West 8.1 mph - N/A   Mostly Cloudy
1:55 AM 31.3 °F 23.9 °F 24.8 °F 77% 30.26 in 10.0 mi West 8.1 mph - N/A   Mostly Cloudy
2:15 AM 30.7 °F 23.3 °F 24.8 °F 79% 30.27 in 10.0 mi West 8.1 mph - N/A   Scattered Clouds
2:35 AM 30.4 °F 23.6 °F 24.8 °F 80% 30.29 in 10.0 mi West 6.9 mph - N/A   Scattered Clouds
2:55 AM 30.0 °F 22.4 °F 24.8 °F 81% 30.29 in 7.0 mi West 8.1 mph - N/A   Scattered Clouds
3:15 AM 29.3 °F 23.2 °F 24.8 °F 83% 30.29 in 7.0 mi WSW 5.8 mph - N/A   Scattered Clouds
3:35 AM 29.1 °F 21.3 °F 24.8 °F 84% 30.29 in 7.0 mi West 8.1 mph - N/A   Clear
3:55 AM 29.3 °F 20.2 °F 23.7 °F 80% 30.30 in 10.0 mi West 10.4 mph - N/A   Clear
4:15 AM 27.9 °F 19.8 °F 22.3 °F 80% 30.30 in 10.0 mi West 8.1 mph - N/A   Clear
4:35 AM 26.2 °F 18.6 °F 21.4 °F 82% 30.31 in 10.0 mi West 6.9 mph - N/A   Clear
4:55 AM 25.5 °F 18.7 °F 21.0 °F 83% 30.31 in 10.0 mi West 5.8 mph - N/A   Clear
5:15 AM 24.6 °F 17.7 °F 20.5 °F 84% 30.31 in 10.0 mi West 5.8 mph - N/A   Clear
5:35 AM 26.1 °F 18.4 °F 21.2 °F 82% 30.31 in 10.0 mi West 6.9 mph - N/A   Clear
5:55 AM 25.7 °F 19.0 °F 20.7 °F 81% 30.32 in 10.0 mi SW 5.8 mph - N/A   Clear
6:15 AM 24.3 °F 18.4 °F 20.3 °F 85% 30.33 in 10.0 mi SW 4.6 mph - N/A   Clear
6:35 AM 23.9 °F 18.0 °F 20.8 °F 88% 30.34 in 7.0 mi SW 4.6 mph - N/A   Clear
6:55 AM 23.9 °F 18.0 °F 21.2 °F 89% 30.34 in 7.0 mi WSW 4.6 mph - N/A   Clear
7:15 AM 23.7 °F 16.6 °F 20.8 °F 89% 30.34 in 5.0 mi WSW 5.8 mph - N/A   Clear
7:35 AM 24.6 °F 18.8 °F 21.4 °F 87% 30.35 in 7.0 mi WSW 4.6 mph - N/A   Clear
7:55 AM 25.7 °F 19.0 °F 21.9 °F 86% 30.33 in 10.0 mi SSW 5.8 mph - N/A   Clear
8:15 AM 27.3 °F 23.4 °F 22.6 °F 83% 30.35 in 10.0 mi WSW 3.5 mph - N/A   Clear
8:35 AM 28.4 °F 24.6 °F 22.1 °F 77% 30.36 in 10.0 mi West 3.5 mph - N/A   Clear
8:55 AM 29.8 °F 26.3 °F 22.5 °F 74% 30.37 in 10.0 mi WNW 3.5 mph - N/A   Clear
9:15 AM 30.9 °F 26.2 °F 22.5 °F 71% 30.38 in 10.0 mi West 4.6 mph - N/A   Clear
9:35 AM 32.0 °F 26.4 °F 22.6 °F 68% 30.38 in 10.0 mi WNW 5.8 mph - N/A   Clear
9:55 AM 32.5 °F 27.1 °F 21.7 °F 64% 30.39 in 10.0 mi WNW 5.8 mph - N/A   Clear
10:15 AM 33.8 °F 26.4 °F 21.7 °F 61% 30.40 in 10.0 mi WNW 9.2 mph - N/A   Clear
10:35 AM 34.5 °F 28.6 °F 21.9 °F 60% 30.41 in 10.0 mi West 6.9 mph - N/A   Clear
10:55 AM 35.6 °F 31.7 °F 20.8 °F 55% 30.40 in 10.0 mi West 4.6 mph - N/A   Clear
11:15 AM 36.5 °F 31.0 °F 20.1 °F 52% 30.39 in 10.0 mi SW 6.9 mph - N/A   Clear
11:35 AM 37.4 °F 32.8 °F 19.8 °F 49% 30.37 in 10.0 mi SSW 5.8 mph - N/A   Clear
11:55 AM 38.1 °F 32.9 °F 19.2 °F 47% 30.35 in 10.0 mi SSW 6.9 mph - N/A   Clear
12:15 PM 39.2 °F 33.0 °F 19.0 °F 44% 30.34 in 10.0 mi South 9.2 mph - N/A   Clear
12:35 PM 39.9 °F 33.9 °F 18.9 °F 43% 30.34 in 10.0 mi South 9.2 mph - N/A   Clear
12:55 PM 40.1 °F 34.7 °F 18.9 °F 43% 30.33 in 10.0 mi South 8.1 mph - N/A   Clear
1:15 PM 40.3 °F 34.4 °F 19.8 °F 44% 30.32 in 10.0 mi South 9.2 mph - N/A   Clear
1:35 PM 41.2 °F 36.0 °F 19.4 °F 42% 30.31 in 10.0 mi South 8.1 mph 17.3 mph N/A   Clear
1:55 PM 41.9 °F 35.9 °F 20.3 °F 42% 30.31 in 10.0 mi SSW 10.4 mph - N/A   Clear
2:15 PM 41.4 °F 36.2 °F 20.5 °F 43% 30.31 in 10.0 mi SSW 8.1 mph - N/A   Clear
2:35 PM 41.7 °F 35.6 °F 20.1 °F 42% 30.31 in 10.0 mi South 10.4 mph - N/A   Clear
2:55 PM 42.1 °F 37.1 °F 19.9 °F 41% 30.30 in 10.0 mi SSW 8.1 mph - N/A   Clear
3:15 PM 41.9 °F 35.9 °F 19.9 °F 42% 30.30 in 10.0 mi South 10.4 mph - N/A   Clear
3:35 PM 41.7 °F 36.7 °F 20.5 °F 43% 30.30 in 10.0 mi SSE 8.1 mph - N/A   Clear
3:55 PM 41.0 °F 37.1 °F 20.8 °F 45% 30.30 in 10.0 mi South 5.8 mph - N/A   Clear
4:15 PM 39.0 °F 33.4 °F 22.1 °F 51% 30.30 in 10.0 mi SSE 8.1 mph - N/A   Clear
4:35 PM 38.1 °F 32.3 °F 23.4 °F 55% 30.30 in 10.0 mi SSE 8.1 mph - N/A   Clear
4:55 PM 37.0 °F 31.6 °F 23.5 °F 58% 30.30 in 10.0 mi South 6.9 mph - N/A   Clear
5:15 PM 36.1 °F 31.4 °F 23.9 °F 61% 30.29 in 10.0 mi SSE 5.8 mph - N/A   Clear
5:35 PM 34.9 °F 29.9 °F 24.1 °F 65% 30.29 in 10.0 mi SSE 5.8 mph - N/A   Scattered Clouds
5:55 PM 34.9 °F 30.8 °F 23.9 °F 64% 30.29 in 10.0 mi SSE 4.6 mph - N/A   Scattered Clouds
6:15 PM 34.7 °F 29.6 °F 24.6 °F 67% 30.29 in 10.0 mi SSE 5.8 mph - N/A   Clear
6:35 PM 34.9 °F 29.9 °F 23.9 °F 64% 30.29 in 10.0 mi South 5.8 mph - N/A   Clear
6:55 PM 34.2 °F 29.0 °F 23.9 °F 66% 30.29 in 10.0 mi South 5.8 mph - N/A   Clear
7:15 PM 34.2 °F 29.0 °F 23.9 °F 66% 30.28 in 10.0 mi South 5.8 mph - N/A   Clear
7:35 PM 34.5 °F 28.6 °F 23.5 °F 64% 30.28 in 10.0 mi South 6.9 mph - N/A   Clear
7:55 PM 34.5 °F 28.6 °F 23.2 °F 63% 30.29 in 10.0 mi South 6.9 mph - N/A   Clear
8:15 PM 34.5 °F 27.9 °F 23.2 °F 63% 30.29 in 10.0 mi South 8.1 mph - N/A   Clear
8:35 PM 34.5 °F 27.9 °F 23.0 °F 63% 30.30 in 10.0 mi South 8.1 mph - N/A   Clear
8:55 PM 34.7 °F 27.5 °F 23.0 °F 62% 30.30 in 10.0 mi South 9.2 mph - N/A   Clear
9:15 PM 34.7 °F 26.9 °F 23.5 °F 64% 30.30 in 10.0 mi South 10.4 mph - N/A   Clear
9:35 PM 34.0 °F 28.0 °F 23.9 °F 67% 30.31 in 10.0 mi SSW 6.9 mph - N/A   Clear
9:55 PM 33.3 °F 27.9 °F 23.7 °F 68% 30.31 in 10.0 mi SSW 5.8 mph - N/A   Clear
10:15 PM 33.1 °F 27.7 °F 23.7 °F 68% 30.31 in 10.0 mi South 5.8 mph - N/A   Clear
10:35 PM 33.1 °F 26.9 °F 23.9 °F 69% 30.33 in 10.0 mi South 6.9 mph - N/A   Clear
10:55 PM 32.9 °F 27.5 °F 24.4 °F 71% 30.33 in 10.0 mi SSW 5.8 mph - N/A   Clear
11:15 PM 32.9 °F 26.7 °F 25.0 °F 73% 30.33 in 10.0 mi South 6.9 mph - N/A   Clear
11:35 PM 32.9 °F 27.5 °F 25.3 °F 74% 30.33 in 10.0 mi SSW 5.8 mph - N/A   Clear
11:55 PM 32.9 °F 27.5 °F 25.5 °F 74% 30.33 in 10.0 mi South 5.8 mph - N/A   Clear